Temp
22 21 22 22 21 21 21 21 21 22 22 21 21 21 21 21 21 21 22 22 22 22 22 22 22 22 22 22 22 22 22 22 22 22 22 22 22 22 22 22 21 21 22 22 22 21 21 21 22 22 22 22 22 22 22 22 22 22 22 22 22 22 22 22 22 22 22 21 21 21 21 21 21 21 21 21 21 21 21 21 21 21 21 21 21
22 21 22 22 21 21 21 21 22 22 22 22 22 22 21 21 21 22 22 22 22 22 22 22 22 22 22 22 22 22 22 22 22 22 22 22 22 22 22 21 21 21 21 22 22 22 22 22 22 22 22 22 22 22 22 22 22 22 22 22 22 22 22 21 21 21 22 21 21 21 21 21 21 21 21 21 21 21 21 21 21 21 21 21 21
22 21 22 21 21 21 21 22 22 21 21 22 22 22 22 21 21 22 22 22 22 22 22 22 22 22 22 22 22 22 22 22 22 22 22 22 22 21 22 22 22 22 21 21 21 22 22 22 22 22 22 22 22 22 22 22 22 22 22 22 22 22 22 21 21 21 21 21 21 21 21 21 21 22 22 22 21 21 21 21 21 21 21 21 21
22 22 21 21 21 21 21 22 22 21 21 22 22 21 21 21 22 22 22 22 22 22 22 22 22 22 22 22 22 22 22 22 22 22 22 22 22 21 22 22 22 21 21 21 21 22 22 22 22 22 22 22 22 22 22 22 21 21 22 22 22 22 22 22 21 21 21 21 21 22 21 21 21 21 22 22 22 21 21 21 21 21 21 20 21
22 21 21 21 21 22 21 22 22 21 22 22 22 22 21 21 22 22 22 22 22 22 22 22 22 22 22 22 22 22 22 22 22 22 22 22 22 22 21 21 21 21 21 21 21 22 22 22 22 22 22 22 22 21 22 22 22 22 21 22 22 22 22 22 21 21 21 21 22 22 21 21 21 21 21 22 22 21 21 21 21 21 20 20 20
22 21 21 21 21 22 21 22 22 22 22 22 22 22 22 22 22 22 22 22 22 22 22 22 22 22 22 22 22 22 22 22 22 22 22 22 21 21 21 21 21 21 21 21 22 22 22 22 22 22 22 22 22 22 22 22 22 22 22 22 22 22 21 21 21 21 21 21 21 21 21 21 21 21 21 21 21 21 21 21 21 21 21 21 20
22 22 22 21 21 22 22 22 22 22 22 22 22 22 22 22 22 22 22 22 22 22 22 22 22 22 22 22 22 22 22 22 22 22 22 22 21 21 22 22 21 21 21 21 22 22 22 22 21 22 22 22 22 22 22 22 22 22 22 22 22 21 21 21 21 21 21 21 21 21 21 21 21 21 21 21 21 21 21 21 21 21 21 21 21
22 22 22 21 22 22 22 22 22 22 22 22 22 22 22 22 22 22 22 22 22 22 22 22 22 22 22 22 22 22 22 22 22 22 22 22 21 22 22 22 22 22 21 22 22 22 22 22 22 22 22 22 22 22 22 22 22 22 22 22 22 22 22 22 21 21 21 21 21 21 21 21 21 21 21 20 21 21 21 21 22 22 22 21 21
21 21 21 22 22 22 22 22 22 22 22 22 22 22 22 22 22 22 22 22 22 22 22 22 22 22 22 22 22 22 22 22 22 22 22 22 21 22 22 22 22 22 22 22 22 22 22 22 22 22 21 22 22 22 22 22 22 22 22 22 22 22 22 22 22 22 22 21 21 21 21 21 21 21 21 20 21 21 21 21 22 22 22 22 21
21 22 22 22 22 22 22 22 22 22 22 22 22 22 22 22 22 22 22 22 22 22 22 22 22 22 22 22 22 22 22 22 22 22 22 22 22 22 22 22 22 22 22 22 22 22 22 22 22 22 22 22 22 22 22 22 22 22 22 22 22 22 22 22 22 22 22 21 21 21 21 21 21 21 21 21 21 21 21 21 22 22 22 22 22
21 22 22 22 22 22 22 22 22 22 22 22 22 22 22 22 22 22 21 22 22 22 21 22 22 22 22 22 22 22 22 22 22 22 22 22 22 21 22 22 22 22 22 22 22 22 22 22 22 22 22 22 22 22 22 22 22 22 22 22 22 22 22 21 22 22 22 21 21 21 21 21 21 21 21 21 21 21 21 21 21 21 22 22 22
21 22 22 22 22 22 22 22 22 22 22 22 22 22 22 22 22 21 21 22 22 21 21 21 22 22 22 22 22 22 22 22 22 22 22 22 21 21 22 22 21 21 22 22 22 22 22 22 22 22 22 22 22 22 22 22 22 22 22 22 22 22 21 21 22 22 22 21 21 21 21 21 20 20 21 21 21 21 21 20 20 20 21 21 21
21 22 22 22 22 22 22 22 22 22 22 22 22 22 22 21 21 21 21 21 22 21 21 21 21 21 22 22 22 22 22 22 22 22 22 21 21 22 22 21 21 21 21 22 22 22 22 22 22 22 22 22 22 22 22 22 22 22 22 22 21 21 21 22 22 22 22 21 21 21 21 21 20 20 21 21 21 21 21 20 20 20 20 20 20
22 22 22 21 22 22 22 22 22 22 22 22 22 21 21 21 21 21 21 21 21 21 21 21 21 21 22 21 22 22 22 22 22 22 22 22 21 22 21 21 21 21 21 22 22 22 22 22 23 23 22 22 22 22 22 22 22 22 22 22 21 21 22 22 22 22 22 21 21 21 21 21 20 20 20 20 21 21 21 21 20 20 20 20 20
22 21 21 21 21 21 22 22 22 22 21 21 21 21 21 21 21 21 21 21 21 21 21 21 21 22 21 21 21 22 21 21 22 22 22 21 21 21 21 21 21 21 21 22 22 22 22 23 23 23 22 22 22 22 22 22 22 22 22 22 22 22 22 22 22 22 21 21 21 21 21 21 20 20 20 20 20 20 20 21 21 21 20 20 20
21 21 21 21 21 21 21 21 21 21 21 21 21 21 21 21 21 21 21 21 21 21 21 21 21 21 21 21 21 21 21 21 22 22 22 21 21 21 21 21 21 21 22 22 23 23 23 23 23 23 22 22 22 22 22 22 22 22 22 22 22 22 22 22 22 22 21 21 21 21 21 20 20 20 20 20 20 20 20 20 20 21 20 20 20
21 21 21 21 21 21 21 21 21 21 21 21 21 21 21 21 21 21 21 21 21 21 21 20 20 21 21 21 21 21 21 21 21 22 22 21 21 21 21 21 21 22 22 23 23 23 23 23 23 23 22 22 22 23 22 22 22 22 22 22 22 22 22 22 22 22 22 21 21 21 21 20 20 20 20 20 20 20 20 20 20 20 20 20 20
21 21 21 21 21 21 21 21 21 21 21 21 21 21 21 21 21 21 21 21 21 20 20 21 20 20 21 21 21 21 21 22 21 21 22 21 21 21 22 22 22 22 22 23 23 23 23 23 23 23 23 22 23 23 23 23 23 23 22 22 22 22 22 22 22 22 22 21 21 21 20 20 20 20 20 20 20 20 20 20 20 20 20 20 20
21 21 21 21 21 21 21 21 21 21 21 21 21 21 20 20 21 21 21 21 21 20 20 21 20 20 21 21 21 21 21 22 22 22 22 21 22 22 22 22 22 22 23 23 23 23 23 23 23 23 23 23 23 23 23 23 23 23 23 22 22 22 22 22 22 22 22 21 21 21 20 20 20 20 20 20 20 20 20 20 20 20 21 20 20
20 21 21 21 21 21 21 21 21 21 21 21 21 21 21 21 20 20 21 20 20 21 21 21 20 21 21 21 21 21 21 22 21 21 21 22 22 22 22 22 22 22 23 23 23 23 23 24 24 23 23 23 23 23 23 23 23 23 23 23 23 23 23 22 22 22 22 22 22 21 21 21 20 20 20 20 20 20 20 20 20 21 21 20 20
20 20 20 20 20 20 20 20 20 20 20 21 21 21 21 21 20 20 21 20 20 21 20 20 20 21 21 21 21 21 21 21 21 21 21 22 22 22 22 22 22 23 23 23 24 24 23 23 23 23 23 23 23 23 23 23 23 23 23 23 23 23 23 23 23 22 22 22 22 22 22 21 20 20 20 20 20 20 20 20 21 21 21 20 20
20 20 20 20 20 20 20 20 20 20 20 20 20 21 20 20 20 21 20 20 20 20 20 20 20 21 20 20 21 21 21 21 21 21 22 22 22 22 21 21 22 23 23 23 24 23 23 23 23 23 23 23 23 23 23 24 24 24 24 24 24 23 23 23 23 23 22 23 23 23 22 21 20 20 20 20 20 20 20 20 21 21 21 21 20
20 20 20 20 20 20 20 20 20 20 20 20 20 20 20 20 21 21 20 20 20 21 20 20 20 21 21 21 21 21 21 21 21 21 22 21 22 22 21 22 23 23 23 24 24 24 24 24 24 24 24 24 24 24 24 24 24 24 24 24 24 24 24 24 24 23 23 23 24 23 23 22 21 20 20 20 20 20 20 20 21 21 21 21 21
20 19 19 19 20 20 20 20 20 20 20 20 20 20 20 20 21 21 20 20 20 21 20 20 20 21 21 21 21 21 21 21 21 21 21 21 21 21 22 22 23 23 24 24 24 24 24 23 23 24 24 24 24 24 24 24 24 24 24 24 24 24 24 24 24 24 24 24 24 24 23 22 22 21 21 21 21 20 20 20 21 21 21 22 23
19 19 20 20 20 20 20 20 20 20 20 20 20 20 21 20 20 20 20 20 20 20 20 20 20 20 20 21 21 21 21 21 21 21 21 21 21 22 22 23 23 24 24 24 23 23 23 23 24 24 24 24 24 24 24 25 25 25 25 25 25 25 25 24 24 25 25 25 24 24 23 23 22 22 22 22 21 21 21 21 21 21 21 22 23
19 20 20 20 20 20 20 20 20 20 20 20 20 20 20 20 20 20 20 20 20 20 20 20 20 20 20 21 21 21 21 21 21 21 21 21 22 22 23 23 23 24 24 23 23 23 23 24 24 24 24 24 25 25 25 25 25 25 25 25 25 25 25 25 25 25 25 25 24 24 23 23 23 23 23 22 22 22 21 21 21 21 21 21 22
20 20 20 20 20 20 20 20 20 20 20 20 20 20 20 20 20 20 20 20 20 20 20 20 20 20 20 20 21 21 21 21 21 21 21 22 22 23 23 23 23 24 23 23 23 23 23 24 24 24 24 25 25 25 26 26 26 26 26 26 26 25 25 25 25 25 25 25 24 24 24 23 23 23 23 23 23 22 22 21 21 22 22 22 22
19 20 20 20 20 20 20 20 20 20 20 20 20 20 20 20 20 20 20 20 20 20 20 20 20 20 20 21 21 21 21 21 21 22 22 22 23 23 23 23 23 23 23 23 23 23 24 24 24 24 25 25 25 25 26 26 26 26 26 26 26 26 26 25 25 25 25 25 25 24 24 24 24 23 23 23 23 23 22 22 21 22 22 22 22
19 19 19 20 20 20 20 20 20 20 20 20 20 20 20 20 20 20 20 20 20 20 20 20 21 21 21 21 21 21 21 22 22 22 22 23 23 23 23 23 23 23 23 23 23 23 24 24 24 25 25 25 25 26 26 26 26 26 26 26 26 26 26 26 25 25 25 25 25 25 24 24 24 24 23 23 23 23 23 22 22 22 22 22 22
19 19 20 20 20 20 20 20 20 20 20 20 20 20 20 20 20 20 20 20 20 20 20 21 21 21 21 21 21 21 22 22 22 22 23 23 23 23 23 23 23 23 23 23 23 23 24 24 25 25 25 25 25 26 26 26 26 27 27 27 26 26 26 26 26 25 25 25 25 25 25 25 24 24 24 23 23 23 23 23 23 22 22 22 22
20 20 20 20 20 20 20 20 20 20 20 20 20 20 20 20 20 20 20 20 20 21 21 21 21 21 21 21 21 22 22 22 22 23 23 23 23 23 23 23 23 23 23 23 23 24 24 24 25 25 25 25 25 26 26 26 27 27 27 27 27 26 26 26 26 26 26 25 25 25 25 25 25 24 24 24 24 23 23 23 23 23 22 22 22
20 20 20 20 20 20 20 20 20 20 20 20 20 20 20 20 20 20 21 21 21 21 21 21 21 21 21 22 22 22 22 22 23 23 23 23 23 24 24 23 23 23 23 24 24 24 24 24 24 25 25 25 26 26 26 26 27 27 27 27 27 27 26 26 26 26 26 26 25 25 25 25 25 25 24 24 24 24 24 23 23 23 23 22 23
21 21 21 20 20 20 20 20 20 20 20 20 20 20 20 20 21 20 21 21 21 21 21 22 22 22 22 22 22 22 22 23 23 23 23 24 24 24 24 23 23 23 24 24 24 24 24 24 25 25 25 26 26 26 26 27 27 28 28 28 27 27 27 27 27 26 26 26 26 25 25 25 25 25 25 25 24 24 24 24 24 23 23 23 23
21 21 21 21 20 20 21 20 20 20 20 20 20 20 20 20 21 20 21 21 21 21 22 22 22 22 22 22 22 22 23 23 23 23 23 24 24 24 24 23 24 24 24 24 24 24 24 24 25 25 25 26 26 26 27 27 27 28 28 28 28 27 27 27 27 27 27 26 26 26 26 25 25 25 25 25 25 25 24 24 24 24 23 23 23
21 21 21 21 21 21 21 20 20 20 20 20 20 20 20 21 20 20 21 21 21 22 22 22 22 22 22 22 22 23 23 23 23 23 23 23 23 23 24 24 24 24 24 24 24 24 24 24 25 25 26 26 26 27 27 27 28 28 28 28 28 28 27 27 27 27 27 27 27 26 26 26 25 25 25 25 25 25 25 25 24 24 24 23 23
22 22 22 21 21 21 21 21 21 21 20 20 20 20 21 21 21 21 21 21 21 21 22 22 22 22 22 22 23 23 23 23 23 23 23 23 23 23 24 24 24 24 24 24 24 24 24 25 25 25 26 26 26 27 27 27 28 28 28 28 28 28 28 28 28 28 27 27 27 26 26 26 26 26 25 25 25 25 25 25 25 24 24 24 24
22 22 22 22 22 22 21 21 21 21 21 21 21 21 21 21 21 21 21 21 22 22 22 22 22 22 22 22 23 23 23 23 23 23 23 23 23 23 24 24 24 24 24 24 24 24 24 25 25 25 26 26 26 27 27 28 28 28 28 28 28 28 28 28 28 28 28 28 27 27 27 27 26 26 26 26 26 25 25 25 25 25 24 24 24
22 22 22 22 22 22 22 22 21 21 21 21 21 21 21 21 21 21 22 22 22 22 22 22 22 22 22 23 23 23 23 23 23 23 23 23 23 23 23 23 23 24 24 24 24 24 24 24 25 26 26 26 26 27 27 28 28 28 28 28 28 28 28 28 28 28 28 28 28 27 27 27 27 26 26 26 26 26 26 25 25 25 25 25 24
22 22 22 22 22 22 22 22 22 22 22 21 21 21 21 21 21 22 22 22 22 22 22 22 23 23 23 23 23 23 23 23 23 23 23 23 23 23 23 23 24 24 24 24 24 24 24 25 25 26 26 26 27 27 27 28 28 28 28 28 28 28 28 28 28 28 28 28 28 28 28 27 27 27 26 26 26 26 26 26 26 26 25 25 25
22 22 22 22 22 22 22 22 22 22 22 22 22 21 21 21 21 22 22 22 22 22 23 23 23 23 23 23 23 23 23 23 23 23 23 23 23 23 23 23 24 24 24 24 24 24 24 25 25 26 26 26 27 27 27 28 28 28 28 28 28 28 28 28 28 29 28 28 28 28 28 28 28 27 27 27 27 26 26 26 26 26 26 26 25
22 22 22 22 22 23 22 22 22 22 22 22 22 22 21 21 21 22 22 22 22 23 23 23 23 23 23 23 23 23 23 23 23 23 24 24 23 23 23 24 24 24 24 24 24 24 24 25 25 26 26 26 27 27 27 28 29 29 28 29 28 28 28 28 28 28 28 28 28 28 28 28 28 28 27 27 27 27 26 26 26 26 26 26 26
22 22 22 22 22 23 23 23 22 22 23 22 22 22 22 22 22 22 22 22 23 23 23 23 23 24 23 23 23 23 23 23 23 23 24 24 23 23 23 24 24 24 24 24 24 24 24 25 25 26 26 26 27 27 27 28 28 28 28 28 28 28 28 28 28 29 29 29 29 28 29 28 28 28 28 27 27 27 27 27 27 27 26 26 26
22 22 22 22 23 23 23 23 23 22 23 23 23 23 23 22 23 23 23 23 23 23 23 23 23 23 23 23 23 23 23 23 23 23 24 24 23 23 23 23 24 24 24 24 24 24 24 25 25 26 26 26 27 27 27 28 28 28 28 27 26 27 28 28 28 29 29 29 29 29 29 29 28 28 28 28 27 27 27 27 27 27 27 27 26
22 22 22 22 22 23 23 23 23 23 23 23 23 23 23 23 23 23 23 23 23 23 23 23 23 23 23 23 23 23 23 23 23 23 23 23 23 23 23 23 24 24 24 24 24 24 24 25 25 25 26 26 26 26 27 27 27 28 27 26 24 25 28 27 27 28 28 29 29 29 29 29 29 28 28 28 28 28 27 27 27 27 27 27 27
22 22 22 23 23 23 23 23 23 23 23 23 23 23 23 23 23 23 23 23 23 23 22 23 23 23 23 23 23 23 23 23 23 23 23 23 23 23 23 24 24 24 24 24 24 24 24 25 25 25 26 26 26 26 27 26 27 27 26 25 25 26 28 26 26 27 28 28 29 29 29 29 29 28 28 28 28 28 28 27 27 27 27 27 27
23 23 23 23 23 24 24 24 23 23 23 23 23 23 23 23 23 23 23 22 22 22 23 23 23 23 23 23 23 23 23 23 23 23 23 23 23 23 24 23 23 24 24 24 24 24 24 25 25 25 25 26 26 26 27 27 27 27 26 26 27 27 27 26 26 27 28 28 28 28 28 29 29 28 28 28 28 28 28 28 28 27 27 27 27
23 23 23 23 24 24 24 24 24 23 23 23 23 23 23 23 23 23 23 23 23 23 23 23 23 23 23 23 23 23 23 23 23 23 23 23 24 24 23 23 23 23 24 24 24 24 24 25 25 25 25 25 26 26 26 27 27 27 27 27 27 27 27 26 26 27 27 28 28 28 28 28 28 29 28 29 28 28 28 28 28 27 27 27 27
23 23 23 24 24 24 24 24 24 24 24 24 23 23 23 23 23 23 23 24 24 24 24 24 24 23 23 23 23 23 23 23 23 23 23 23 24 24 23 23 24 24 24 24 24 24 24 25 25 25 25 25 26 26 26 26 27 27 27 27 28 28 27 27 27 27 27 28 28 27 28 28 28 29 28 28 29 28 28 28 28 28 28 27 27
23 23 23 24 24 24 24 24 24 24 24 24 24 23 23 23 23 23 23 24 24 24 24 24 24 23 23 23 23 23 23 23 23 24 24 24 24 24 23 23 24 24 24 24 24 24 24 25 25 25 25 25 25 26 26 26 26 27 27 27 28 28 27 27 27 27 27 28 28 26 27 28 28 28 28 28 28 28 28 28 28 28 28 28 28
24 23 23 23 24 24 24 24 24 24 24 24 24 24 24 23 23 23 24 24 24 24 24 24 24 23 23 23 23 23 23 23 24 24 24 24 23 23 23 23 24 24 24 24 24 24 24 24 25 25 25 25 25 26 26 26 26 26 27 27 28 28 28 27 27 27 27 27 27 26 26 26 27 28 28 28 28 28 28 28 28 28 28 28 28
24 23 23 23 23 24 24 24 24 24 24 24 24 24 24 23 23 24 24 24 24 24 24 24 23 23 23 23 23 23 23 23 24 24 23 23 23 23 23 23 23 24 24 24 24 24 24 24 24 25 25 25 25 25 26 26 26 26 27 27 27 27 27 27 27 28 27 26 26 26 26 26 26 27 28 28 28 28 28 28 28 28 28 28 28
Height
810 810 812 812 814 814 816 817 818 819 820 821 821 822 823 823 822 823 823 823 822 822 822 823 824 825 826 826 827 828 829 829 830 830 831 832 832 833 834 834 835 836 836 837 837 837 838 838 838 838 838 839 839 839 839 839 839 839 839 839 839 839 839 839 839 839 839 839 839 839 839 840 840 840 840 839 839 839 838 838 837 837 837 837 838
809 811 812 813 814 815 816 817 819 819 820 820 820 821 821 821 821 822 822 823 822 822 823 824 825 826 827 827 828 829 830 831 831 831 832 833 834 835 835 836 836 837 838 838 839 839 839 840 840 839 840 840 840 840 840 841 841 841 841 841 841 841 841 841 840 840 840 840 840 840 840 841 841 841 840 840 839 839 839 838 838 837 837 838 838
809 811 812 813 814 815 817 818 819 820 820 820 821 822 822 822 821 822 822 823 823 824 824 825 826 827 828 828 829 830 831 832 832 833 833 834 835 836 837 837 837 838 839 840 840 841 840 841 841 841 841 841 841 842 842 842 842 843 843 843 842 842 842 842 842 842 841 841 841 841 841 841 841 841 840 840 840 839 839 839 838 838 838 838 838
810 811 813 813 814 816 817 818 819 820 821 821 822 822 822 823 822 823 823 824 824 825 826 826 827 828 829 830 830 831 832 833 834 834 835 835 836 837 837 839 839 840 840 841 842 842 842 842 843 842 842 842 843 843 843 844 844 844 844 844 844 844 844 843 843 843 843 842 842 842 842 842 842 842 841 840 840 840 839 839 839 839 839 839 839
811 812 813 814 815 816 818 819 820 820 821 821 822 822 823 823 823 824 825 825 825 826 827 827 828 829 830 831 831 832 833 834 835 835 836 837 837 838 839 840 841 841 842 843 844 843 843 844 844 844 844 844 844 844 845 845 845 845 845 845 845 845 845 845 845 844 844 844 843 843 843 843 843 842 842 841 841 840 840 840 839 839 839 839 839
811 812 813 815 816 817 819 820 820 821 822 822 823 823 823 823 824 825 826 827 827 827 828 828 829 830 831 832 833 833 834 835 836 837 837 838 838 839 840 841 841 842 843 845 845 845 845 845 845 845 845 845 845 845 846 846 847 846 847 847 846 847 846 846 846 845 845 845 845 844 844 844 843 843 843 842 842 841 841 841 840 840 839 839 839
811 813 814 815 817 818 819 820 821 822 822 823 824 824 824 825 825 826 827 828 828 829 829 830 830 831 832 833 834 834 835 836 837 838 839 840 840 840 841 842 842 843 844 845 845 846 846 846 846 846 846 846 847 847 847 848 848 848 848 848 848 848 848 847 847 847 846 846 846 845 845 845 844 844 843 843 843 843 842 841 841 840 840 840 840
812 814 815 816 817 819 820 821 822 823 823 824 824 825 825 826 827 827 828 829 830 830 830 831 831 832 833 834 835 835 836 837 838 839 840 841 841 842 842 843 843 844 844 845 846 847 847 848 848 848 847 848 848 848 848 849 849 849 849 849 849 849 849 848 848 848 847 847 847 846 846 845 845 844 844 844 844 844 843 842 841 841 841 841 842
813 815 816 817 818 819 820 821 822 823 824 824 825 826 826 827 828 829 829 830 831 831 832 832 833 833 834 835 836 837 838 839 839 840 841 842 843 843 843 844 844 845 845 846 847 848 848 849 849 849 849 849 850 849 849 850 850 850 850 850 850 850 850 849 849 849 848 848 848 847 847 846 846 845 845 845 845 844 843 843 842 843 843 843 843
814 815 816 818 819 820 821 822 823 824 824 825 826 826 827 828 829 830 831 831 832 833 833 833 834 834 835 836 837 838 839 840 841 841 842 843 844 844 845 845 845 845 846 847 847 849 849 850 850 850 850 850 850 850 850 850 851 851 851 851 851 851 850 850 850 849 849 849 849 848 847 847 846 846 846 846 846 845 844 844 844 844 845 845 845
814 816 817 818 819 820 821 822 823 824 825 825 826 826 828 828 830 831 831 832 832 833 834 835 835 836 836 837 838 839 840 841 842 843 843 844 845 845 846 846 847 846 847 848 849 850 850 850 851 851 851 851 851 851 851 851 852 852 852 852 852 852 851 851 851 850 850 849 849 849 848 847 847 847 847 847 846 846 845 845 845 846 846 846 846
815 817 818 819 820 821 822 823 823 824 825 825 826 827 828 829 830 831 832 833 833 834 836 837 836 837 837 838 839 840 841 842 843 844 844 845 846 846 847 848 848 848 848 849 850 850 851 851 851 852 852 852 852 852 852 852 853 853 853 853 853 852 852 851 851 851 850 850 850 849 849 848 848 848 847 847 847 846 846 846 846 847 847 847 846
816 817 819 820 820 822 822 823 824 824 825 825 826 827 829 830 832 832 833 834 835 835 836 838 838 838 838 839 840 841 842 843 844 845 845 846 847 848 848 849 849 850 850 851 851 851 851 851 852 852 853 853 853 853 853 853 854 854 853 854 853 853 852 852 852 851 851 851 850 850 849 848 848 848 848 848 848 847 847 846 847 847 847 847 846
817 818 819 820 821 822 822 824 824 825 825 826 827 828 830 832 833 833 834 835 835 836 837 838 838 838 839 840 840 841 842 843 844 845 846 847 848 849 849 850 851 851 851 852 852 852 852 852 852 853 853 854 854 854 854 855 855 855 854 854 854 853 853 853 852 852 852 851 851 850 849 849 849 849 849 849 849 848 848 848 847 847 847 847 846
818 819 820 821 821 822 823 824 825 825 825 826 828 829 831 832 833 833 833 833 834 836 837 838 838 838 838 840 841 841 842 843 844 846 847 848 849 850 850 851 852 852 852 852 852 852 852 853 853 854 854 855 855 855 855 855 855 855 855 854 854 854 853 853 853 852 852 851 851 850 850 849 849 849 849 849 849 849 849 849 848 848 847 847 847
819 820 820 821 821 823 824 825 825 826 826 827 829 830 831 831 831 832 833 833 834 836 837 839 840 840 840 841 842 842 843 844 845 846 847 848 850 850 852 852 853 853 853 853 853 853 853 853 854 854 855 855 855 856 856 856 856 856 855 855 855 854 854 853 853 853 852 852 851 850 850 849 849 849 850 850 850 850 850 850 849 848 847 847 847
820 821 821 821 822 823 824 825 825 826 826 827 829 830 831 831 832 833 833 833 835 837 838 841 843 843 842 843 843 843 844 845 846 846 847 849 850 851 852 853 853 853 853 853 853 853 854 854 855 855 856 856 856 856 857 857 856 856 856 855 855 854 854 854 853 853 853 852 851 850 850 849 849 850 850 851 851 852 852 851 850 848 847 848 848
820 821 822 822 823 824 825 825 826 826 827 828 829 830 831 832 832 834 833 833 835 838 839 842 845 845 844 844 844 844 845 845 847 847 848 849 850 852 852 853 854 854 854 854 854 854 854 855 856 856 856 857 857 857 857 857 857 857 856 856 855 855 854 854 854 853 853 852 851 851 850 850 850 850 851 852 852 853 853 852 851 848 847 847 848
821 822 822 823 823 825 826 826 826 827 827 828 829 830 832 832 832 833 833 834 836 839 840 842 845 846 845 844 844 845 846 847 847 849 849 849 850 852 853 854 854 854 854 854 854 854 855 856 856 857 857 857 858 858 857 857 857 857 857 856 855 855 855 854 854 853 853 853 852 851 850 850 850 851 852 853 853 854 854 853 851 848 846 847 848
823 823 823 824 824 825 826 827 827 827 828 828 830 830 831 832 832 833 833 835 837 838 840 842 844 845 845 844 844 846 847 848 848 850 850 850 851 853 854 854 854 854 854 854 855 855 856 856 857 857 857 858 858 858 858 858 858 858 857 857 856 856 855 854 854 854 853 853 852 851 851 850 850 851 852 853 854 855 855 854 852 848 845 846 848
824 824 825 825 825 826 826 827 827 827 828 829 830 829 830 832 833 832 833 836 838 838 840 843 844 845 846 846 846 847 848 849 849 851 850 850 852 853 854 855 855 855 855 855 855 856 856 857 857 858 858 859 859 859 859 858 858 858 858 857 856 856 855 855 854 854 853 853 852 851 851 850 850 851 852 853 854 856 856 856 854 848 844 845 847
824 825 825 826 826 826 827 827 827 828 829 830 830 829 830 833 832 831 834 837 838 839 841 844 844 845 847 847 847 848 849 850 850 851 851 852 853 854 855 855 855 855 855 856 856 857 857 858 858 859 859 859 860 859 859 859 859 858 858 857 857 856 855 855 854 853 853 853 853 852 851 851 851 851 852 853 854 856 857 857 855 850 843 841 845
824 825 825 826 827 827 827 828 828 829 830 831 831 830 832 833 832 831 834 838 839 839 841 844 845 845 847 847 847 848 849 850 851 852 852 853 854 855 856 856 856 856 856 857 857 858 858 859 859 860 860 860 860 860 860 859 859 859 858 858 857 856 856 855 854 853 853 853 853 853 852 852 851 851 852 853 854 856 857 858 857 854 846 838 839
824 824 825 826 827 827 828 828 829 830 830 831 831 831 833 834 831 831 835 838 840 840 841 845 845 846 847 848 848 849 850 851 852 853 853 854 855 856 856 856 857 857 857 858 859 859 860 860 860 861 861 861 860 860 860 859 859 859 858 858 857 856 856 855 854 854 854 854 854 853 853 852 852 852 852 853 854 855 857 858 858 856 851 840 833
824 824 825 826 827 828 829 829 830 831 831 832 831 831 833 834 832 832 836 839 841 842 843 845 846 847 848 848 849 850 851 852 853 853 854 855 856 857 857 857 858 858 859 859 860 860 861 861 861 861 861 861 860 860 859 859 859 859 858 858 857 856 856 855 855 854 854 855 855 854 854 853 853 852 853 853 853 855 856 857 858 857 855 848 837
824 824 825 826 827 828 829 830 831 832 833 833 832 833 833 835 834 834 837 840 842 843 844 845 846 848 848 849 850 851 852 852 853 854 855 856 857 857 858 858 859 859 860 860 861 861 861 861 861 861 861 861 860 859 859 859 859 858 858 858 857 857 856 856 855 855 856 856 855 855 855 854 854 853 853 853 853 854 855 856 857 856 855 852 845
824 825 826 827 828 829 830 831 832 833 833 834 834 835 835 836 837 837 839 841 843 844 844 845 847 848 849 850 851 852 853 853 854 855 856 857 857 858 858 859 859 860 860 861 862 862 862 862 862 861 861 861 860 860 859 859 859 859 859 858 858 857 857 857 856 856 856 857 856 856 855 855 854 854 854 853 853 854 854 855 855 855 853 852 849
824 825 826 827 829 830 831 832 833 833 834 835 836 836 837 838 839 840 840 842 843 844 845 846 847 849 850 851 852 853 854 854 855 856 857 857 858 859 859 860 860 861 861 862 862 862 862 862 862 861 861 861 860 860 860 859 859 859 859 859 858 858 858 858 857 857 857 857 857 856 856 856 855 855 854 854 854 854 854 855 854 854 853 851 849
824 825 827 827 829 830 831 832 833 834 835 836 837 837 838 839 840 841 841 843 844 845 846 847 848 850 851 852 853 854 855 855 856 857 857 858 859 859 860 861 861 862 862 862 863 863 863 862 862 862 861 861 861 860 860 860 860 859 859 859 859 859 858 858 858 858 858 858 858 857 857 856 856 855 855 855 854 854 854 854 854 854 852 851 849
824 825 826 827 829 830 831 832 833 834 835 836 837 838 839 840 840 841 842 843 845 846 847 848 849 850 851 852 854 855 855 856 857 857 858 859 860 860 861 862 862 862 863 863 863 863 863 863 862 862 862 861 861 861 860 860 859 859 859 859 859 859 859 858 858 858 858 859 858 858 858 857 857 856 856 855 855 854 854 854 854 854 852 851 849
824 825 826 827 829 830 831 832 834 834 835 836 837 838 839 840 841 842 843 844 845 846 847 849 850 851 852 853 854 855 856 857 857 858 859 860 861 861 862 863 863 863 863 864 864 864 863 863 863 862 862 862 862 861 861 860 859 859 859 858 859 858 859 859 859 859 859 859 859 859 858 858 857 857 856 856 855 855 854 854 854 853 853 852 850
824 825 826 828 829 830 831 833 834 835 836 837 838 839 840 841 842 842 843 844 845 847 848 849 850 851 853 854 855 856 856 857 858 859 860 861 861 862 863 863 864 864 864 864 864 864 864 864 863 863 863 862 862 862 861 860 859 859 858 858 858 858 859 859 859 859 859 859 859 859 859 858 858 857 857 856 856 855 855 854 854 853 853 852 851
824 825 826 828 829 830 832 833 834 835 836 837 838 839 840 841 842 843 844 845 846 847 848 849 851 852 853 854 855 856 857 858 859 860 860 861 862 863 863 864 864 864 864 864 865 865 864 864 864 864 863 863 863 862 861 860 859 859 858 858 858 858 858 859 859 859 859 859 860 860 859 859 858 858 857 857 857 856 855 855 854 854 853 852 851
824 825 827 828 829 830 832 833 834 835 836 837 838 839 840 842 843 844 845 845 847 848 849 850 851 852 853 854 856 857 858 858 859 860 861 862 863 863 864 864 864 865 865 865 865 865 865 865 864 864 864 863 863 862 861 860 859 859 859 859 858 858 858 858 859 859 859 860 860 860 860 859 859 858 858 858 857 857 856 856 855 854 853 852 852
824 825 826 828 829 830 832 833 834 836 837 838 839 840 841 842 843 844 845 846 847 848 849 851 852 853 854 855 856 857 858 859 860 861 862 863 863 864 864 865 865 865 865 865 865 865 865 865 865 865 864 864 863 862 862 860 860 859 859 859 859 859 859 858 859 859 859 860 860 860 860 860 859 859 859 858 858 857 857 856 855 855 854 853 852
823 825 826 828 830 831 832 833 834 836 837 838 839 840 841 842 844 845 846 847 848 849 850 852 853 854 855 856 857 858 859 860 861 862 862 863 864 864 865 865 865 866 866 866 866 866 866 866 865 865 864 864 863 862 862 861 860 860 859 859 859 859 859 859 859 859 859 860 860 860 860 860 860 860 859 859 858 858 857 857 856 855 854 853 853
823 825 826 828 829 831 832 833 835 836 837 839 840 841 842 843 844 845 847 848 849 850 851 853 854 854 855 857 858 859 860 860 861 862 863 863 864 864 865 865 866 866 866 866 866 866 866 866 866 865 865 864 863 862 861 861 860 860 860 860 859 859 859 859 859 859 859 860 860 860 861 861 861 860 860 859 859 858 858 857 856 856 855 854 853
824 825 826 828 829 831 832 833 835 836 837 839 840 841 843 844 845 846 847 848 850 851 852 853 854 855 856 857 858 859 860 861 862 862 863 864 864 865 865 866 866 866 867 867 867 867 866 866 866 866 865 864 863 862 861 861 861 860 860 860 860 860 859 859 859 859 859 860 860 861 861 861 861 861 860 860 859 859 858 857 857 856 855 854 854
824 825 827 828 829 831 832 834 835 836 838 839 840 842 843 844 845 847 848 849 850 851 852 854 854 856 857 858 859 859 860 861 862 862 863 864 864 865 866 866 866 866 867 867 867 867 866 866 866 866 865 865 863 862 862 861 861 861 860 860 860 860 860 860 859 860 860 860 860 861 861 861 861 861 861 860 859 859 858 858 857 856 855 855 854
824 825 827 828 829 831 832 834 835 836 838 839 840 842 843 844 845 847 848 849 850 851 852 854 855 856 857 858 859 860 860 861 862 863 863 864 865 865 866 866 866 867 867 867 867 867 866 866 866 865 865 864 863 862 862 861 861 861 861 861 860 860 860 860 860 860 860 860 861 861 861 861 861 861 861 860 860 859 859 858 857 856 855 855 854
824 825 826 828 829 830 832 833 835 836 837 839 840 841 842 844 845 846 848 849 850 851 852 853 855 856 857 858 859 860 861 861 862 863 864 864 865 865 866 866 867 867 867 867 867 867 866 866 866 865 865 864 863 862 862 861 860 861 861 861 860 860 860 860 860 860 860 860 860 861 861 861 861 861 861 860 860 859 859 858 858 857 856 855 854
823 824 825 827 829 830 831 833 834 836 837 838 840 841 842 843 845 846 848 849 850 851 852 854 855 856 857 858 859 860 861 862 862 863 864 865 865 866 866 866 867 867 867 867 867 867 867 866 866 865 865 864 863 862 862 861 861 861 861 861 861 861 860 860 860 860 860 860 860 860 860 860 861 861 861 860 860 860 859 858 858 857 856 856 855
822 824 825 827 828 829 831 833 834 836 837 838 840 841 842 844 845 847 848 849 850 852 853 854 855 856 857 858 859 860 861 862 862 863 864 865 865 866 866 867 867 867 867 867 867 867 867 867 866 866 865 864 863 863 862 861 861 862 862 863 864 863 862 860 860 860 860 860 860 860 860 860 860 860 860 860 860 860 859 859 858 857 857 856 855
822 824 825 826 827 829 830 832 834 835 837 838 840 841 843 844 846 847 849 850 851 852 853 854 855 856 857 858 859 860 861 862 862 863 864 865 865 866 867 867 867 867 867 867 867 867 867 867 866 866 865 864 864 863 862 862 862 862 863 865 865 866 867 863 860 860 860 859 859 859 859 859 860 860 860 860 860 860 859 859 858 858 857 856 856
820 822 823 825 826 828 829 831 833 835 837 838 840 842 843 845 846 847 849 850 851 852 853 854 855 856 857 858 859 860 861 862 862 863 864 865 865 866 867 867 867 867 867 867 867 867 867 867 867 866 866 865 864 864 863 863 862 862 863 864 866 868 868 863 861 861 859 859 859 858 859 859 859 860 860 860 859 859 859 859 858 858 857 857 856
819 820 822 824 825 827 829 831 833 835 837 838 840 842 843 844 845 847 848 849 850 851 852 853 854 856 857 858 859 860 861 862 862 863 864 864 865 866 866 867 867 867 867 867 868 868 867 867 867 867 866 866 865 864 863 863 863 863 862 863 864 865 864 862 864 864 860 859 859 859 859 859 859 859 859 859 859 859 859 858 858 858 858 857 856
817 819 821 823 825 827 829 831 832 834 836 838 840 841 843 844 845 846 847 848 850 851 852 854 855 856 857 858 859 860 861 861 862 863 863 864 865 865 866 866 867 867 867 867 868 868 868 868 867 867 866 866 865 865 864 864 863 863 863 862 862 862 862 862 863 865 864 861 859 859 859 859 859 859 859 859 858 858 858 858 858 858 858 857 857
816 819 820 822 824 826 828 830 832 834 836 838 840 841 842 844 845 846 847 848 849 851 852 854 855 856 857 858 859 860 860 861 862 863 863 864 865 865 866 866 866 867 867 867 868 868 868 868 868 867 867 867 866 865 865 864 864 863 863 862 862 861 861 862 862 862 864 864 862 860 859 860 859 859 859 859 858 858 858 858 858 858 857 857 856
815 817 819 821 823 825 828 829 832 833 835 837 839 841 843 844 845 846 847 848 850 851 852 853 855 856 857 858 859 859 860 861 861 862 863 864 864 865 865 866 866 867 867 867 868 867 868 868 868 868 867 867 867 866 866 865 864 864 863 863 862 862 862 862 862 861 862 864 864 862 860 860 860 860 859 859 858 858 857 857 857 857 857 856 856
813 816 818 821 823 825 827 829 831 833 835 837 838 840 842 844 845 846 847 848 849 851 852 853 854 855 856 857 858 859 860 860 861 862 863 863 864 865 865 866 866 866 867 867 867 867 867 868 868 868 868 867 867 867 866 866 865 864 864 863 863 862 862 862 862 861 861 862 863 862 861 861 861 860 859 859 859 858 857 857 857 857 856 856 856
812 816 818 820 822 824 826 828 830 832 834 836 837 839 841 843 844 846 847 848 849 851 852 852 854 855 856 857 858 859 859 860 861 861 862 863 864 864 865 865 866 866 867 867 867 867 867 868 868 868 868 867 867 867 867 866 866 865 865 864 863 863 863 862 862 862 861 861 862 862 862 861 861 860 860 859 859 858 858 857 857 857 856 856 855
Wind_Speed
13 11 10 10 9 8 8 8 7 7 7 5 5 7 9 10 12 13 13 14 14 15 16 15 16 16 16 16 16 16 17 17 17 16 16 15 15 14 14 14 14 14 14 15 15 15 16 16 16 17 17 17 16 16 16 16 16 15 15 14 14 13 13 13 13 13 13 13 13 13 12 12 12 11 11 10 10 9 8 8 8 9 10 9 9
15 13 12 11 9 8 8 8 7 7 7 6 7 7 8 9 11 13 13 13 13 14 15 15 15 15 15 16 16 16 16 16 17 17 17 16 14 14 14 14 15 15 14 14 15 15 16 16 16 17 17 16 16 15 15 15 15 15 14 13 13 12 12 12 11 11 12 12 12 12 12 12 11 11 10 10 9 8 8 8 8 9 9 8 8
16 15 13 11 10 10 9 9 8 7 7 8 8 7 8 9 10 12 13 13 13 13 14 14 14 14 15 15 16 16 16 16 16 16 16 15 14 14 14 15 15 15 15 14 14 15 16 16 15 16 16 14 14 14 14 14 14 14 13 13 12 11 11 11 10 10 10 11 11 12 12 11 10 10 9 8 7 7 8 8 8 8 8 8 8
16 16 14 12 12 11 11 10 9 8 9 8 8 8 8 9 10 11 12 13 13 13 13 13 13 14 14 15 15 15 15 15 15 15 15 15 14 14 15 15 15 15 15 15 13 15 16 15 14 14 14 13 13 13 13 13 13 12 11 11 11 11 11 10 10 9 9 10 10 10 11 10 10 9 9 7 5 6 7 7 7 8 8 8 8
17 17 15 14 13 13 12 11 10 8 9 9 8 8 9 9 11 11 12 13 13 13 13 12 13 13 14 14 14 14 15 15 15 15 14 14 14 15 15 15 15 15 14 14 13 14 15 14 13 13 13 12 12 12 13 12 11 10 10 10 10 10 10 9 9 8 8 9 9 9 10 10 9 8 9 8 6 6 7 6 6 7 7 7 7
18 17 16 15 14 13 12 12 10 9 9 8 8 8 8 9 10 11 12 13 13 13 12 12 12 13 13 13 13 13 14 15 15 15 14 13 13 14 14 14 14 14 14 13 13 14 13 12 12 12 12 12 12 12 12 11 9 9 9 9 9 9 9 8 8 7 7 8 8 8 9 9 8 8 8 8 8 7 6 5 5 5 5 6 6
18 18 17 16 15 13 12 12 11 10 9 8 8 8 8 9 9 10 12 13 12 12 11 11 12 13 13 13 13 13 13 14 15 14 14 13 13 13 13 14 14 14 14 13 13 13 12 11 11 11 12 12 12 12 11 11 10 9 8 9 9 8 8 8 7 7 6 7 7 7 7 7 6 6 7 7 8 7 6 6 5 5 4 4 5
19 18 17 16 15 14 13 12 10 10 9 8 8 8 8 9 9 10 11 11 12 11 11 11 11 12 13 14 13 12 12 13 13 13 14 13 12 12 12 13 14 13 13 13 12 12 11 11 11 11 11 11 11 11 11 11 10 10 9 9 9 9 9 9 7 6 6 6 7 6 5 5 5 5 6 6 7 7 7 6 6 6 4 4 4
19 17 17 16 15 14 13 11 10 9 9 9 8 8 9 9 9 9 10 10 11 11 11 11 11 12 13 13 13 12 12 12 12 12 13 13 12 11 12 13 13 13 13 13 12 11 10 10 11 11 10 10 10 10 10 10 10 10 9 8 8 9 9 9 8 6 5 6 6 6 6 5 4 4 5 6 6 6 6 6 6 6 5 4 3
19 16 17 16 15 13 12 11 10 10 9 8 8 8 9 9 9 8 9 9 11 11 10 11 11 12 13 13 12 12 12 12 12 12 12 13 11 10 11 12 12 12 13 13 12 10 10 10 10 10 10 9 9 9 9 10 10 9 8 7 7 8 8 9 8 6 4 5 5 6 6 5 5 5 5 5 5 5 6 6 6 7 6 5 3
18 17 17 15 14 12 11 11 10 10 9 9 8 8 8 9 9 9 9 9 10 10 10 10 11 12 12 13 12 12 12 12 12 12 12 12 11 10 10 12 12 12 12 12 11 10 10 10 9 9 8 8 8 8 8 9 9 8 7 7 6 6 7 8 8 6 4 3 3 3 3 3 5 6 5 6 5 5 5 5 5 6 7 6 5
18 18 17 15 13 11 11 10 10 10 9 9 8 7 8 8 8 8 8 8 9 10 10 10 11 12 12 13 12 12 11 12 12 11 11 11 10 10 10 12 12 12 12 11 10 9 9 9 8 8 7 7 8 8 8 8 8 9 8 6 5 5 6 8 9 8 5 3 2 2 1 2 5 5 5 6 6 5 4 4 4 4 5 5 5
18 17 16 15 12 11 11 10 9 9 9 9 8 8 8 8 8 7 7 8 9 10 10 10 10 11 12 13 13 12 11 12 11 11 11 10 10 10 11 12 11 11 11 10 10 9 8 8 8 8 7 7 8 8 7 6 7 8 8 6 4 4 6 7 9 9 6 4 2 1 1 1 3 4 4 5 5 5 5 5 5 4 4 4 3
19 17 16 14 12 11 10 10 8 8 8 8 8 8 7 7 7 7 7 7 8 9 10 10 11 12 12 13 13 13 12 12 11 11 11 10 10 12 12 11 10 10 10 9 9 8 7 7 7 7 6 6 7 7 6 5 5 6 7 6 5 4 5 7 8 9 8 5 3 2 1 0 1 2 2 3 3 4 5 5 5 5 5 4 3
18 16 15 13 11 10 9 9 7 7 7 7 7 6 6 7 7 8 8 8 9 9 10 11 11 12 13 13 13 14 13 13 12 11 10 10 11 12 11 10 9 9 9 8 8 8 7 6 7 7 6 6 6 6 5 4 4 4 5 6 7 6 6 7 7 9 9 7 4 3 2 1 1 1 1 2 3 3 4 5 4 4 5 5 4
16 15 14 12 11 10 9 8 7 7 6 6 6 6 7 8 9 10 9 9 10 10 10 11 11 12 12 13 13 14 14 13 12 11 10 10 10 10 10 9 8 8 8 7 8 7 7 6 6 6 5 5 6 5 4 2 2 3 4 6 8 7 7 7 8 8 9 8 6 4 3 1 2 3 3 3 4 5 5 6 5 4 4 5 4
15 14 13 12 10 9 8 8 8 7 6 6 6 7 8 8 9 10 11 9 10 11 10 10 10 10 11 12 13 14 14 13 12 11 11 10 9 9 9 8 7 6 7 7 7 7 6 6 6 5 5 5 5 4 2 1 2 3 5 7 9 8 8 9 9 9 9 9 7 4 3 2 3 4 4 4 5 5 5 6 5 4 4 4 4
14 13 12 11 9 9 8 7 7 7 6 7 7 7 7 8 8 9 11 11 10 10 9 10 9 10 11 11 12 12 13 13 12 11 10 10 8 8 8 6 6 6 6 6 6 6 6 6 5 5 4 5 4 3 1 1 2 4 5 7 9 9 10 11 10 10 10 10 8 4 4 3 3 4 4 4 5 5 6 6 5 4 4 3 3
12 11 11 10 9 8 7 6 6 7 6 7 7 6 6 8 8 9 10 11 10 10 10 11 11 10 11 11 11 11 12 13 12 11 10 9 9 8 7 6 6 5 5 5 5 5 5 5 4 4 4 4 3 2 2 2 3 4 5 7 10 11 12 12 11 10 10 11 8 5 5 3 3 4 3 4 4 5 5 5 5 4 4 3 4
11 11 10 9 9 7 7 6 6 6 6 6 5 5 6 7 8 9 10 9 9 10 11 12 12 10 11 11 11 11 12 13 13 10 10 10 9 7 6 6 6 5 5 5 6 6 6 5 4 4 3 3 3 4 3 3 4 5 5 7 11 13 13 13 12 10 10 11 9 5 5 4 2 3 2 3 4 5 4 5 5 5 5 4 4
10 11 11 10 9 8 7 7 7 6 5 5 5 5 6 7 8 9 10 9 9 10 11 13 13 11 12 11 11 12 13 13 13 10 9 10 8 7 6 5 5 5 6 7 7 7 6 5 4 4 2 1 2 4 4 5 6 6 7 9 11 12 13 14 13 10 9 10 8 5 5 3 2 2 2 2 4 5 4 4 4 5 8 6 4
10 10 10 9 8 8 8 7 8 7 6 5 5 6 7 7 9 10 11 12 10 11 11 13 14 12 12 12 12 13 14 13 12 10 9 9 8 6 6 5 5 6 7 8 7 7 6 6 5 4 2 1 2 4 5 6 6 7 8 9 10 11 13 14 11 8 8 8 6 4 3 3 1 2 3 2 3 4 4 5 5 6 10 11 7
9 9 9 9 8 8 8 8 8 7 7 7 6 6 7 8 9 10 12 13 12 12 11 13 15 13 12 13 13 13 14 13 12 11 10 9 7 6 6 5 6 7 7 8 7 7 7 6 5 4 3 2 3 5 6 7 8 8 9 10 10 11 12 11 9 7 7 6 5 4 3 3 2 2 3 3 3 3 4 5 5 6 10 15 13
8 8 8 8 8 8 8 8 8 8 8 7 7 6 7 8 8 9 11 12 12 12 12 12 15 14 13 13 14 14 14 13 12 11 10 8 7 6 6 6 7 8 8 8 8 8 7 7 6 5 4 4 5 6 8 9 9 9 9 9 9 9 9 8 7 7 6 6 5 4 4 3 3 3 3 4 4 4 4 4 5 6 7 13 16
7 7 8 9 9 9 8 9 9 8 8 8 8 7 7 9 9 8 10 12 12 13 13 14 15 14 13 14 14 15 15 14 12 11 10 9 7 6 7 7 7 8 8 8 8 8 8 7 7 6 6 6 7 8 9 9 9 8 8 8 8 7 7 7 7 8 7 6 6 5 5 5 4 4 5 5 5 5 5 5 5 5 5 8 14
7 7 9 10 10 9 9 10 9 8 8 8 9 8 8 10 10 9 10 12 13 14 14 15 14 13 14 15 15 15 14 14 12 11 10 8 7 7 7 8 8 8 8 7 8 8 8 8 8 7 7 8 9 9 8 8 7 7 7 7 6 5 5 6 8 9 8 7 6 6 6 6 6 6 7 8 8 9 8 7 6 6 5 5 8
9 9 10 10 10 10 9 10 10 9 9 9 10 10 10 11 11 11 12 13 13 14 14 14 13 13 14 15 15 14 14 13 12 11 9 8 7 8 8 8 8 8 7 7 7 8 8 9 9 9 9 10 11 10 8 7 6 6 5 5 4 4 4 6 8 10 9 8 8 8 8 8 8 8 9 10 10 11 10 8 8 7 6 4 4
10 11 11 10 10 10 10 10 11 11 11 11 11 11 11 12 12 12 13 13 13 14 14 14 13 14 14 14 14 13 13 13 11 10 8 8 8 9 9 8 8 7 6 7 7 8 8 9 10 9 10 11 12 12 9 7 6 6 6 5 3 3 4 6 8 9 9 9 8 8 9 8 9 9 10 10 10 11 11 9 9 8 7 7 6
11 11 11 12 12 11 10 11 12 12 12 12 12 12 12 12 12 13 14 13 13 13 13 14 14 14 14 14 14 13 13 11 10 9 8 9 9 9 9 8 7 6 6 7 7 8 9 10 10 10 11 11 12 12 10 8 7 7 7 6 4 2 3 4 6 7 8 8 8 8 9 9 9 10 10 10 11 11 11 10 10 10 10 10 9
13 12 12 14 12 11 11 12 12 12 12 13 13 13 13 13 13 13 14 14 14 13 13 14 14 14 14 14 13 12 11 10 9 9 9 9 9 9 8 7 5 5 5 7 8 8 9 10 10 10 10 11 12 12 11 10 9 9 8 6 5 3 2 2 4 4 5 7 8 8 9 9 9 10 10 11 11 12 12 12 13 12 11 12 12
14 14 14 15 12 11 13 13 12 12 13 14 13 13 12 13 13 13 14 14 14 14 13 14 14 14 13 13 12 11 10 9 10 10 10 9 9 9 7 5 4 4 5 6 7 8 9 10 10 10 10 11 12 12 11 11 11 9 7 6 5 4 3 3 3 3 5 5 6 7 8 9 9 10 10 11 12 12 14 14 15 15 14 14 14
16 16 16 16 13 11 14 14 12 13 14 14 13 12 12 12 13 13 13 14 14 14 13 13 14 13 12 12 11 11 10 10 10 10 9 9 8 7 4 4 4 4 5 6 7 8 9 9 10 10 10 11 12 11 10 11 11 9 6 5 5 4 4 4 4 4 4 5 5 5 6 7 8 9 10 10 12 13 15 16 16 16 16 16 16
18 17 17 16 13 13 15 14 13 13 13 14 13 12 12 12 12 12 13 14 14 14 14 14 13 13 12 11 11 10 10 10 9 9 9 8 7 5 4 3 3 4 5 6 7 9 8 8 9 9 9 10 11 11 10 10 9 8 6 6 5 5 5 5 5 5 5 5 6 5 5 6 6 7 8 9 11 12 14 16 17 18 17 17 17
19 18 18 17 14 14 15 13 14 14 13 13 13 12 12 12 11 11 12 13 14 14 15 14 13 12 11 10 10 10 10 9 8 7 7 7 6 4 3 2 2 4 5 6 7 8 8 8 8 7 8 9 10 10 10 10 8 7 6 6 6 6 6 6 6 6 6 5 5 5 5 5 5 6 7 8 10 12 13 15 16 18 18 18 17
20 20 19 17 16 16 15 14 14 15 14 13 13 13 12 12 11 11 11 13 14 14 14 14 12 11 11 10 10 10 9 7 6 6 6 6 4 3 2 2 2 3 4 5 7 8 7 7 7 8 8 8 9 9 10 10 8 7 6 6 6 6 6 7 7 6 6 5 4 5 5 5 5 5 6 8 9 10 12 13 15 16 18 18 17
21 21 20 18 17 16 15 14 14 15 14 14 14 13 13 12 11 10 11 12 13 13 14 12 10 10 10 9 9 8 7 6 6 6 6 4 2 2 2 1 1 2 4 5 6 7 6 5 6 8 8 8 9 10 9 9 8 7 6 6 5 6 7 7 6 5 5 4 4 4 5 5 5 5 6 7 8 9 10 11 13 14 16 17 18
22 22 21 20 18 16 16 15 15 15 14 14 14 14 14 13 11 10 11 12 12 13 13 11 9 8 8 8 8 7 7 6 6 6 5 3 2 2 2 1 1 2 3 5 5 5 5 5 5 6 8 9 10 10 9 8 7 6 6 6 6 6 7 6 5 4 4 4 4 4 5 6 6 5 5 6 7 8 9 10 11 12 14 15 17
21 22 22 21 19 17 16 16 15 14 15 15 15 16 15 13 11 11 11 11 11 11 11 9 8 8 8 8 8 7 6 5 5 5 5 4 3 3 2 0 1 2 3 4 4 4 4 5 5 4 6 8 9 10 9 8 6 5 5 6 6 7 8 6 5 5 4 5 5 5 5 6 6 6 5 6 6 7 7 8 10 11 12 13 14
21 22 22 21 19 18 17 17 16 16 16 16 16 17 15 13 12 11 11 11 10 9 8 8 8 9 9 8 7 6 5 4 5 5 4 4 4 3 2 1 1 3 3 3 3 3 3 4 5 4 6 7 7 8 9 8 5 4 4 5 5 7 8 6 5 5 5 6 6 6 7 7 6 5 5 6 6 6 6 6 8 10 11 12 12
21 22 22 21 20 19 18 18 18 17 16 17 18 18 16 14 13 12 12 11 10 9 8 9 9 9 9 8 6 5 5 4 5 5 4 5 4 4 2 2 2 3 3 2 2 4 4 4 5 5 6 6 5 7 7 6 4 3 3 3 4 6 6 5 4 3 4 5 6 6 7 6 6 4 4 5 6 5 5 5 7 9 10 11 12
20 22 22 22 21 20 21 20 19 18 18 19 20 20 18 16 15 14 14 13 11 9 10 10 10 10 9 8 7 5 5 5 4 4 4 5 5 4 3 3 2 2 2 1 2 4 5 5 5 6 8 6 6 6 6 4 1 2 3 4 5 4 5 5 4 4 5 6 6 6 6 5 4 4 4 5 5 5 5 5 6 7 9 10 11
22 24 24 23 22 21 22 22 21 20 20 20 21 20 19 18 17 16 15 13 12 11 11 11 11 11 10 9 7 6 6 5 5 4 4 5 5 4 4 3 3 2 1 1 2 4 5 5 5 6 8 7 6 7 7 4 1 1 2 4 5 5 6 5 5 6 7 7 7 6 5 3 2 3 3 4 4 5 5 6 6 7 8 9 11
23 24 24 24 22 22 22 23 23 22 22 21 21 20 19 18 16 15 15 13 12 12 11 11 11 11 10 9 8 7 7 7 7 6 5 5 5 4 4 4 4 3 2 2 2 4 4 5 6 7 8 7 6 7 7 4 2 2 2 2 2 3 4 5 5 6 7 8 7 6 5 4 2 3 4 4 4 4 5 5 6 6 7 8 10
23 24 24 24 24 23 23 24 24 23 23 23 22 20 19 17 15 14 14 13 12 13 12 12 12 12 11 11 10 10 9 9 8 8 7 6 6 5 4 4 4 4 3 3 2 3 3 4 6 7 8 7 6 7 8 5 2 2 1 1 0 1 1 3 4 4 6 7 7 7 6 5 3 4 5 5 5 5 5 5 5 6 7 8 10
25 26 26 26 25 24 24 24 25 24 24 24 23 21 19 18 17 15 14 13 13 14 15 15 14 14 13 13 12 11 11 10 9 9 8 8 7 6 5 4 4 4 4 3 2 2 2 3 5 6 8 9 7 6 8 8 6 3 1 1 0 1 1 2 3 3 4 5 5 6 5 4 4 5 7 7 7 6 5 5 5 6 7 8 10
26 28 28 28 27 26 25 24 24 24 24 24 23 23 21 20 19 17 16 15 15 16 18 18 17 16 15 13 13 12 12 11 10 9 9 8 8 7 6 5 4 4 3 3 2 1 1 3 4 5 6 8 8 7 7 8 8 7 3 1 1 2 2 1 1 2 3 5 4 2 2 3 4 6 8 8 8 7 6 5 5 5 7 8 10
27 28 28 27 27 27 26 25 24 24 24 24 23 23 23 21 20 18 17 18 18 18 19 18 17 16 14 12 12 13 13 12 11 10 10 9 8 7 6 6 5 4 3 2 1 1 0 1 2 3 5 6 7 9 9 8 8 8 7 6 4 1 1 1 1 1 2 3 5 4 2 1 4 6 7 7 6 5 5 6 6 6 7 8 10
28 27 27 28 28 28 27 26 25 24 24 24 24 24 23 22 21 19 19 20 20 19 18 18 17 16 14 12 12 13 14 14 13 11 10 9 8 6 6 6 6 5 4 2 1 1 1 1 1 2 3 4 6 8 10 10 9 8 8 8 8 7 4 2 1 0 1 0 3 3 2 2 3 4 5 6 6 5 5 6 7 8 8 8 9
28 29 29 30 30 29 28 27 26 25 24 24 24 24 24 22 21 20 20 21 20 19 18 18 18 17 15 13 12 13 13 15 14 13 11 10 8 6 6 7 7 6 4 3 2 1 1 2 1 1 2 2 4 5 8 10 10 10 9 8 7 7 6 5 3 2 2 1 1 1 2 4 3 2 5 6 7 7 6 5 7 7 7 7 8
29 30 29 29 30 29 29 28 27 26 25 25 25 25 24 22 22 22 22 22 21 20 19 18 18 18 16 14 13 13 13 14 14 14 13 11 9 7 7 7 7 7 5 4 3 3 2 3 2 2 1 1 2 3 5 8 9 10 10 9 8 6 5 4 4 3 2 1 0 1 2 3 3 3 4 6 7 7 6 5 6 6 6 8 8
27 28 27 28 29 29 30 29 29 28 27 26 26 26 25 23 22 23 23 23 22 21 20 19 19 19 18 16 15 14 13 14 14 14 13 11 9 8 8 8 8 8 7 5 4 3 3 3 3 3 2 1 1 2 3 5 7 8 9 9 9 7 5 4 4 3 2 1 2 1 1 1 2 4 5 5 6 7 6 5 6 6 7 8 7
Wind_Direction
168 164 161 152 145 144 135 139 133 131 137 135 130 119 119 120 120 120 116 112 110 109 108 108 108 107 108 107 105 105 104 106 107 108 109 108 106 103 102 100 99 96 95 97 97 99 101 100 100 98 98 97 97 95 94 91 88 85 81 79 76 75 74 72 71 73 76 77 78 78 79 78 77 76 75 74 75 75 76 78 79 81 80 80 83
159 158 157 151 147 141 138 144 141 140 141 135 120 110 112 112 114 116 114 110 106 105 107 108 109 109 109 109 108 108 107 106 107 108 107 106 104 103 103 104 102 98 96 96 98 99 100 98 98 99 100 100 98 96 94 92 89 85 82 80 77 75 74 73 72 73 75 76 79 79 78 77 76 74 72 71 72 72 74 77 78 80 79 78 80
152 152 152 150 149 144 148 151 150 149 139 132 123 121 118 113 112 114 118 115 110 107 109 111 112 113 112 112 112 111 110 109 108 108 106 105 104 102 104 106 103 100 100 99 100 101 100 99 99 100 99 98 97 95 94 92 89 85 81 79 77 75 74 72 71 71 76 79 82 82 81 79 76 72 67 65 70 73 74 77 77 79 79 79 79
151 149 149 150 151 149 154 156 155 151 140 134 131 129 124 119 114 114 118 118 116 112 112 114 115 116 115 115 116 116 113 111 110 108 107 104 103 103 104 104 101 101 102 101 101 102 101 100 98 99 99 98 96 93 92 91 87 84 80 78 76 73 71 70 70 71 75 80 84 85 83 80 76 71 61 57 77 83 76 77 74 74 76 78 80
151 149 150 151 153 154 155 156 152 146 139 138 135 130 126 120 115 114 117 120 120 116 115 115 116 117 119 119 121 120 117 116 113 108 106 102 101 102 103 102 101 101 102 102 103 101 99 98 96 97 99 98 95 91 90 89 85 83 81 78 77 74 71 70 71 74 77 81 85 85 81 77 73 73 65 60 80 92 84 78 74 73 73 75 79
153 153 154 153 154 153 154 153 147 145 142 138 131 125 123 117 115 116 119 122 121 118 116 114 113 115 120 123 123 122 120 120 116 110 107 103 100 101 105 106 106 103 103 103 102 101 97 96 96 95 95 93 94 92 89 86 81 80 79 78 77 76 72 68 70 75 79 83 82 81 77 74 72 75 73 63 69 83 89 87 81 77 74 76 79
156 156 156 155 154 152 152 150 146 148 145 140 134 128 122 117 119 120 122 123 121 119 117 116 114 114 119 124 124 121 120 121 117 113 111 107 103 103 106 108 109 108 107 104 101 101 99 96 94 93 92 91 91 89 86 83 79 77 78 77 76 74 67 61 66 71 75 81 80 78 76 76 75 76 79 69 66 68 72 82 90 89 89 87 79
156 155 155 155 153 151 150 148 148 149 147 143 139 133 126 125 126 123 123 122 121 121 120 119 116 116 118 124 125 122 120 120 118 116 115 110 107 107 106 109 113 113 110 106 102 101 100 97 93 93 92 92 93 89 84 80 77 76 79 77 72 65 56 53 59 66 72 79 81 80 80 80 77 75 81 80 72 63 57 65 83 94 99 91 79
155 153 152 153 151 149 149 149 150 151 149 145 143 139 134 134 132 127 124 123 124 123 124 121 117 116 116 120 123 123 121 122 122 118 117 113 111 108 106 112 114 111 109 106 103 102 101 97 95 94 92 95 96 92 86 79 77 77 80 77 65 55 45 44 45 53 68 80 83 81 80 80 78 72 80 87 82 70 61 56 65 82 88 83 74
157 154 152 153 150 151 152 155 155 154 154 151 148 143 142 142 139 134 130 132 130 125 126 123 118 118 116 120 124 124 122 123 124 120 118 114 113 108 106 111 109 108 107 106 104 104 103 100 98 96 94 99 98 93 85 77 77 75 75 72 57 46 38 35 35 44 62 74 80 79 76 77 79 72 76 84 82 80 77 63 56 65 73 73 67
158 156 154 154 152 154 158 160 159 156 157 157 153 150 149 146 146 143 139 140 135 131 130 126 122 121 120 123 127 125 122 124 125 123 117 113 112 108 108 110 109 108 105 105 106 107 105 101 99 100 96 96 101 99 85 72 70 64 61 60 51 38 29 26 27 36 51 62 69 75 81 82 78 70 68 72 75 80 86 87 73 67 71 72 69
156 155 154 154 153 157 159 161 159 158 161 162 162 159 152 147 148 145 143 140 137 138 133 129 127 125 124 126 130 127 122 123 124 122 116 113 111 109 113 113 112 109 106 108 110 110 107 104 101 103 102 97 105 105 89 75 63 54 49 46 41 27 17 17 20 26 33 39 41 60 92 86 76 68 56 59 64 66 74 90 92 82 77 77 76
153 153 152 153 154 158 160 162 162 162 167 169 168 167 162 150 142 138 142 139 140 144 137 135 134 130 130 131 133 132 125 122 121 120 117 115 113 113 114 112 113 112 111 113 112 112 109 108 107 108 110 106 110 106 96 83 62 48 43 39 28 12 7 6 13 19 20 18 10 16 48 85 90 86 62 55 58 58 61 66 64 66 73 79 79
152 151 150 153 155 159 165 167 168 169 173 177 176 173 160 136 130 141 147 146 148 149 144 144 143 138 136 135 137 137 131 125 124 122 121 119 117 115 112 111 115 113 112 115 116 116 112 113 114 115 115 113 116 110 100 88 67 46 34 29 16 354 357 356 2 13 13 5 348 337 340 44 102 108 87 77 69 54 54 53 47 51 57 61 63
150 147 150 155 157 164 171 170 174 178 180 182 174 161 145 138 151 153 153 163 157 154 155 151 150 144 140 142 142 140 134 130 128 126 123 120 117 115 113 116 117 113 113 116 115 112 111 115 118 121 120 123 124 116 106 92 70 40 12 9 4 340 341 344 345 1 6 359 343 325 321 332 32 47 70 91 84 58 58 56 46 39 33 39 46
148 148 154 158 162 169 171 171 177 179 182 180 165 160 164 173 178 162 161 177 162 158 162 153 152 145 143 148 143 140 138 134 132 129 124 120 117 115 116 118 116 116 115 113 111 107 107 112 118 125 127 133 133 126 117 90 46 22 351 348 356 344 336 336 330 342 355 355 342 325 324 348 38 42 47 65 72 63 61 56 45 35 23 25 28
150 154 159 160 167 174 174 177 181 179 184 177 167 175 177 182 186 169 168 183 169 159 158 150 150 142 143 149 143 143 143 138 134 131 126 122 120 117 118 120 119 119 116 113 112 110 109 113 119 125 130 141 143 137 123 26 354 1 344 340 354 352 343 339 327 325 340 348 340 326 322 349 31 37 41 51 65 61 59 53 39 20 13 20 17
154 161 161 161 172 176 175 181 183 178 185 183 176 176 170 174 183 175 171 183 174 151 149 149 146 148 147 144 144 149 147 143 138 133 129 125 121 119 121 123 123 121 117 115 116 116 114 117 120 122 134 149 156 156 212 299 322 338 337 340 351 352 344 341 331 320 328 340 338 325 319 342 15 15 26 44 55 53 49 47 36 9 357 7 10
157 163 162 166 177 177 173 174 178 171 180 184 178 172 164 171 176 175 171 178 168 145 155 154 145 157 154 143 145 155 154 146 140 134 130 125 123 124 125 127 126 118 114 111 114 119 116 118 123 126 145 163 180 207 253 269 301 322 330 339 345 346 341 340 336 323 323 335 336 328 322 342 8 344 7 40 47 48 45 41 29 4 344 348 357
156 167 170 175 179 177 172 162 164 166 172 169 163 171 173 170 167 174 170 165 159 153 162 148 145 162 153 144 145 156 161 147 135 132 129 126 125 126 128 131 125 117 114 113 117 118 114 115 118 124 149 178 211 236 253 273 301 316 320 327 333 339 338 336 337 329 324 333 338 337 329 341 352 320 348 42 49 50 47 38 19 348 326 333 349
154 168 172 176 179 176 173 164 166 168 166 159 153 172 174 153 153 172 165 151 153 163 161 144 150 163 150 144 144 153 158 142 131 133 132 126 125 126 128 125 118 120 120 117 117 113 106 102 100 98 118 185 237 251 267 288 302 312 313 317 325 332 334 332 334 333 330 337 344 351 346 345 330 315 351 45 58 54 45 36 18 347 322 320 326
156 160 165 175 178 172 172 171 176 178 175 169 162 177 176 152 158 174 161 150 158 167 163 149 153 160 152 148 146 150 150 139 134 138 132 126 127 126 121 113 115 123 121 116 112 104 94 85 77 68 59 356 295 288 293 298 302 308 309 314 322 327 329 331 336 341 343 349 359 12 10 7 345 334 354 14 50 54 47 40 28 5 332 319 310
160 159 168 174 173 171 171 171 176 179 176 174 173 182 172 153 166 176 158 151 161 167 160 148 150 157 158 150 148 149 146 140 138 138 131 126 127 121 116 112 120 122 117 109 101 95 85 74 64 54 35 351 320 312 307 304 305 306 308 314 318 322 328 336 348 358 4 12 24 33 31 28 6 341 342 345 20 40 44 41 28 12 340 322 317
164 165 170 166 169 172 167 166 167 168 166 168 175 179 158 143 158 165 148 144 152 159 154 146 149 159 161 152 150 150 147 144 142 141 136 134 133 128 126 121 120 117 109 102 93 85 75 64 54 41 16 348 331 325 317 311 311 313 316 318 318 324 336 350 7 23 35 40 44 47 43 37 21 1 352 345 355 11 24 33 22 16 351 326 324
167 164 162 158 165 164 158 159 159 161 162 167 172 171 148 134 144 152 141 139 145 154 158 155 154 160 161 155 154 153 151 148 146 145 142 144 143 137 129 118 114 110 104 94 83 71 59 50 42 29 6 349 342 338 328 321 320 323 325 321 323 339 354 9 31 46 55 57 57 56 51 46 40 30 20 13 8 11 17 23 20 15 358 324 323
168 163 158 157 161 157 157 159 158 159 160 161 160 159 150 138 146 157 150 148 152 156 160 160 157 159 158 156 157 156 153 150 149 150 149 149 141 130 120 115 112 108 100 83 70 58 47 37 27 17 6 2 4 -0 344 331 327 331 331 321 331 0 19 36 56 63 66 66 63 61 57 51 47 42 33 29 23 21 22 18 17 13 3 331 316
169 169 164 162 163 162 162 161 159 160 157 152 152 155 157 151 153 161 160 158 157 155 157 159 160 160 157 157 159 156 153 153 154 155 152 142 129 124 121 117 113 105 90 72 58 44 32 22 15 13 12 13 17 12 358 344 334 338 339 327 342 21 47 62 73 75 72 67 64 62 59 53 49 47 41 38 32 28 27 22 20 25 28 21 352
168 170 171 170 169 168 164 158 159 160 156 151 152 155 156 156 155 161 163 162 159 155 156 159 160 158 156 158 158 157 157 157 157 155 145 130 127 128 125 120 111 97 77 55 41 32 22 16 15 16 15 14 13 9 1 353 344 345 347 343 359 42 69 76 78 77 73 67 64 61 59 55 50 49 46 43 40 36 34 31 29 36 49 49 40
168 170 174 175 172 171 163 158 159 158 156 151 150 151 151 155 156 158 158 158 161 157 156 156 154 154 155 158 159 160 160 157 155 148 135 129 132 132 128 122 107 84 61 40 26 22 18 18 20 16 13 8 5 2 359 351 340 334 335 338 348 29 73 77 71 67 63 61 60 59 59 56 53 51 49 48 45 44 42 41 44 52 60 56 50
173 171 176 176 173 173 166 161 160 157 156 152 149 150 151 153 153 156 154 154 158 157 155 152 152 154 155 158 161 161 157 152 148 140 133 134 136 136 133 123 97 62 44 31 20 15 15 20 19 11 5 0 356 355 354 347 336 326 319 318 322 336 16 51 56 48 41 46 52 54 57 55 55 54 50 49 47 46 47 46 50 59 65 59 55
178 173 177 177 172 176 171 164 161 156 154 151 150 150 149 150 151 155 152 152 155 154 153 152 152 154 155 157 156 154 151 147 144 139 137 140 142 142 136 116 79 47 31 24 19 14 14 15 9 1 355 351 349 348 349 345 339 330 318 306 303 314 335 349 14 25 21 25 35 44 51 53 54 53 50 47 45 44 44 45 47 55 64 64 61
184 180 179 176 173 178 173 167 164 158 154 152 150 149 149 150 152 153 151 153 156 154 151 151 152 153 154 153 151 150 149 147 144 141 143 145 146 145 131 99 67 46 30 20 18 14 11 6 356 349 346 342 341 342 348 349 342 332 321 307 301 308 320 330 340 352 5 8 13 26 40 48 49 50 48 44 43 42 42 42 42 46 55 60 61
186 185 180 177 176 178 175 171 170 165 160 156 153 152 151 151 151 152 153 154 156 154 151 150 150 151 151 150 151 151 150 147 145 145 147 149 149 144 123 89 60 46 31 20 16 10 3 355 344 340 340 337 337 341 350 356 346 331 317 307 308 312 313 320 332 334 342 352 355 2 18 34 43 47 44 41 39 39 39 39 39 40 44 51 54
184 184 182 180 179 178 176 176 175 172 169 166 161 158 156 154 151 152 155 156 155 152 150 150 150 150 149 150 151 152 148 145 144 147 148 149 148 138 116 82 54 37 26 16 8 2 354 345 336 334 338 337 337 342 351 356 350 336 321 309 308 310 313 321 329 330 333 341 348 355 11 21 31 42 40 37 35 35 36 35 36 36 37 41 45
185 184 183 181 181 181 178 177 177 175 175 174 168 162 160 155 151 153 157 158 155 152 152 152 150 149 149 152 153 153 149 143 144 148 149 149 143 129 108 77 54 28 13 5 357 350 345 342 337 334 337 337 338 344 351 353 348 333 320 317 313 307 312 322 328 330 330 333 342 355 15 26 27 36 38 35 34 34 34 33 32 33 34 35 37
186 185 183 181 183 185 182 179 178 177 177 176 169 164 160 154 150 152 156 159 158 156 156 154 149 149 151 152 153 152 149 145 149 155 159 159 152 136 119 83 41 14 0 353 345 337 337 344 347 343 340 340 341 344 351 353 345 329 316 316 319 316 317 325 333 337 334 335 342 358 22 33 31 34 38 37 38 37 36 34 31 30 31 31 32
188 186 184 182 185 188 188 185 179 178 178 174 169 164 159 152 148 151 155 158 160 161 162 161 156 156 156 156 155 151 149 150 158 169 171 166 159 149 133 94 16 7 357 344 332 330 339 349 359 354 346 344 342 342 349 350 338 328 318 310 316 329 335 339 350 353 352 351 350 3 22 32 32 33 40 42 44 45 42 38 34 32 31 29 28
187 187 186 184 184 188 190 188 182 180 178 173 170 166 160 154 152 155 156 156 159 163 167 169 167 166 165 163 159 156 154 158 171 178 174 168 170 171 164 142 353 354 347 330 320 331 346 355 4 4 356 348 342 344 349 346 332 319 315 312 318 334 343 349 1 2 5 7 2 2 8 18 25 29 39 46 52 51 48 45 39 34 31 28 25
187 187 188 186 186 188 191 190 186 180 176 173 172 169 164 161 160 162 164 163 162 166 173 175 173 171 169 167 167 167 167 173 181 184 181 182 189 189 191 235 325 335 333 317 319 341 356 5 6 13 8 356 353 359 352 342 332 307 301 308 318 330 338 342 349 0 7 8 7 4 3 8 12 20 35 44 49 47 44 42 37 34 31 28 23
187 187 186 186 187 188 191 193 188 180 176 176 175 173 172 171 171 172 173 174 172 172 176 176 175 174 172 173 176 179 181 180 183 190 191 195 202 204 217 254 293 312 319 308 331 357 8 15 16 20 13 9 21 20 3 343 326 302 294 297 317 333 342 347 353 8 3 352 352 355 3 10 5 6 26 37 41 36 28 27 30 32 30 28 24
186 187 185 186 188 188 190 192 188 183 180 180 179 178 178 179 180 181 180 179 180 180 178 178 180 180 179 179 180 181 184 185 194 201 200 205 210 214 227 238 253 284 308 331 357 5 12 17 27 28 18 22 36 26 19 16 329 306 308 298 304 313 327 343 348 343 334 329 330 339 355 9 2 355 13 28 32 27 19 17 25 31 30 28 25
185 187 187 188 189 189 190 191 190 188 186 184 184 183 183 183 183 184 183 182 184 183 180 182 183 184 186 184 184 188 194 208 223 222 218 217 216 220 227 219 224 254 282 334 348 4 13 23 39 40 31 33 35 26 27 40 54 23 353 325 311 300 299 309 311 309 311 312 317 326 336 351 350 340 359 16 20 21 18 17 23 27 28 25 22
185 187 188 189 190 190 191 192 192 192 191 189 189 188 187 187 186 186 185 186 188 186 186 188 188 191 192 191 196 203 211 225 233 232 229 224 222 225 224 217 223 241 268 292 331 3 17 34 44 43 44 48 50 43 36 39 88 98 39 0 329 323 310 299 291 289 295 296 298 304 308 312 311 310 334 356 356 4 10 12 18 20 21 19 17
185 188 189 190 192 192 192 192 194 195 195 194 193 192 191 191 192 192 192 196 196 193 194 196 198 200 199 200 204 210 219 228 231 229 227 224 227 233 232 235 241 249 268 281 316 4 21 42 43 42 47 52 59 56 51 53 94 127 69 74 79 37 336 300 305 294 298 297 281 278 285 286 287 298 313 328 330 336 354 1 5 11 13 12 13
187 189 191 192 193 193 193 193 193 196 198 197 195 195 196 197 198 200 202 207 206 201 199 200 203 205 207 209 211 215 220 222 224 224 224 224 230 239 243 251 261 261 267 271 298 355 24 44 43 44 47 48 52 62 64 63 70 80 101 158 43 4 223 288 322 308 324 330 292 267 267 268 271 293 307 315 313 312 328 348 354 3 8 8 8
190 192 192 192 192 192 193 193 193 195 198 199 197 197 199 201 203 205 205 205 205 207 207 207 208 208 211 216 216 217 216 216 219 220 222 226 232 243 246 249 262 263 255 253 279 325 23 42 41 48 48 45 49 64 70 67 66 60 49 41 301 273 241 277 350 308 339 6 7 328 281 263 268 296 314 317 310 302 308 327 343 357 2 5 5
192 193 192 192 192 191 192 194 195 195 197 199 200 200 201 203 207 212 210 206 206 210 213 213 212 211 214 218 216 215 214 214 216 218 222 227 235 244 242 242 252 253 240 236 270 292 301 30 36 50 51 45 48 58 63 67 69 60 54 54 51 51 246 236 180 294 326 7 23 25 22 292 291 309 323 325 319 316 315 315 324 337 343 352 357
190 191 192 192 192 191 191 194 196 196 197 200 202 204 205 206 210 215 213 210 211 211 212 213 213 214 216 218 216 214 214 215 217 220 224 227 237 244 241 242 241 238 234 233 250 252 247 304 6 27 37 44 48 54 58 62 65 64 68 69 64 66 72 84 113 110 155 335 355 10 18 323 309 324 345 353 350 344 335 323 324 330 333 340 345
188 190 191 192 193 192 192 195 197 199 199 201 205 208 210 211 213 214 212 210 213 213 212 213 214 215 218 218 217 217 216 216 219 224 226 228 236 244 245 244 236 229 231 238 252 270 270 266 292 334 346 30 48 54 56 59 61 62 68 72 71 69 69 73 71 68 99 104 311 308 333 340 346 4 6 3 356 345 341 344 340 337 341 348 347
188 190 190 192 194 195 196 197 199 200 201 203 206 208 211 213 215 214 212 210 212 212 212 212 214 215 217 218 218 219 218 217 219 221 222 224 232 243 246 243 237 233 233 241 259 277 266 249 259 282 298 0 58 62 56 59 62 64 65 64 65 60 52 54 53 50 60 75 88 300 339 355 354 2 6 359 357 357 357 359 351 347 350 354 355
187 187 189 191 194 197 198 198 200 200 202 204 207 209 210 213 216 214 212 211 210 210 211 211 213 215 218 220 220 221 220 219 218 217 218 221 229 240 244 241 238 237 237 241 257 272 258 246 259 267 282 349 112 101 71 66 65 66 65 63 60 53 42 39 44 48 45 94 100 63 357 8 339 355 11 9 15 24 30 25 13 8 2 359 6